Weather History for KAKR - March, 2012

Change the Weather History Date:

Tuesday, March 13, 2012

  Actual Average (KCAK) Record (KCAK)
Temperature  
Mean Temperature 60 °F 36 °F  
Max Temperature 69 °F 45 °F 75 °F (1990)
Min Temperature 52 °F 27 °F 4 °F (1948)
Degree Days  
Heating Degree Days 4 29  
Month to date heating degree days 399  
Since 1 July heating degree days 4943  
Cooling Degree Days 0 0  
Month to date cooling degree days 0  
Year to date cooling degree days 0  
Growing Degree Days 10 (Base 50)    
Moisture  
Dew Point 49 °F    
Average Humidity 70    
Maximum Humidity 94    
Minimum Humidity 40    
Precipitation  
Precipitation 0.10 in 0.09 in - ()
Month to date precipitation 1.14  
Year to date precipitation 6.06  
Snow  
Snow 0.00 in 0.30 in - ()
Month to date snowfall 4.3  
Since 1 July snowfall 40.8  
Snow Depth -    
Sea Level Pressure  
Sea Level Pressure 30.01 in    
Wind  
Wind Speed 13 mph (WSW)    
Max Wind Speed 20 mph    
Max Gust Speed 26 mph    
Visibility 10 miles    
Events Rain    
T = Trace of Precipitation, MM = Missing Value Source: NWS Daily Summary

Daily Weather History Graph

Daily Weather History Graph

Search for Another Location

Airport or City:

Trip Planner

Search our weather history database for the weather conditions in past years. The results will help you decide how hot, cold, wet, or windy it might be!

Date:

Astronomy

Mar. 13, 2012 Rise Set
Actual Time 7:40 AM EDT 7:30 PM EDT
Civil Twilight 7:12 AM EDT 7:58 PM EDT
Nautical Twilight 6:40 AM EDT 8:30 PM EDT
Astronomical Twilight 6:08 AM EDT 9:02 PM EDT
Moon 1:04 AM EDT (3/13) 10:48 AM EDT (3/13)
Length of Visible Light 12h 45m
Length of Day
11h 50m
Waning Gibbous, 66% of the Moon is Illuminated
Mar 13
Waning Gibbous
Mar 14
Last Quarter
Mar 22
New
Mar 30
First Quarter
Apr 6
Full

Hourly Weather History & Observations

Time (EDT) Temp. Dew Point Humidity Pressure Visibility Wind Dir Wind Speed Gust Speed Precip Events Conditions
12:25 AM 57.2 °F 53.6 °F 88% 29.98 in 10.0 mi SSW 16.1 mph 24.2 mph N/A   Overcast
12:54 AM 57.9 °F 53.1 °F 84% 29.98 in 10.0 mi SW 12.7 mph 24.2 mph N/A   Overcast
1:11 AM 59.0 °F 53.6 °F 82% 29.97 in 10.0 mi SSW 15.0 mph 23.0 mph N/A   Overcast
1:54 AM 59.0 °F 54.0 °F 83% 29.96 in 10.0 mi SSW 15.0 mph 26.5 mph N/A   Overcast
2:54 AM 59.0 °F 54.0 °F 83% 29.96 in 10.0 mi SSW 18.4 mph 25.3 mph N/A   Overcast
3:07 AM 59.0 °F 53.6 °F 82% 29.95 in 10.0 mi SSW 18.4 mph 25.3 mph N/A   Overcast
3:18 AM 59.0 °F 53.6 °F 82% 29.96 in 10.0 mi SW 19.6 mph 24.2 mph N/A   Overcast
3:54 AM 59.0 °F 54.0 °F 83% 29.94 in 10.0 mi SW 12.7 mph 21.9 mph N/A   Overcast
4:54 AM 60.1 °F 54.0 °F 80% 29.94 in 10.0 mi SW 15.0 mph 21.9 mph N/A   Overcast
5:54 AM 57.0 °F 53.1 °F 87% 29.97 in 10.0 mi NW 11.5 mph 19.6 mph 0.02 in Rain Light Rain
6:30 AM 53.6 °F 51.8 °F 94% 29.99 in 7.0 mi West 6.9 mph - 0.07 in Rain Light Rain
6:54 AM 53.1 °F 50.0 °F 89% 30.01 in 10.0 mi WSW 6.9 mph - 0.08 in   Overcast
7:54 AM 52.0 °F 48.9 °F 89% 30.02 in 10.0 mi WSW 6.9 mph - N/A   Overcast
8:54 AM 53.1 °F 48.9 °F 86% 30.04 in 10.0 mi WSW 5.8 mph - N/A   Partly Cloudy
9:54 AM 57.0 °F 50.0 °F 77% 30.04 in 10.0 mi West 9.2 mph - N/A   Clear
10:54 AM 60.1 °F 50.0 °F 69% 30.05 in 10.0 mi West 10.4 mph - N/A   Clear
11:54 AM 62.1 °F 48.9 °F 62% 30.04 in - West 15.0 mph - N/A   Scattered Clouds
12:54 PM 64.0 °F 48.9 °F 58% 30.04 in 10.0 mi West 15.0 mph - N/A   Partly Cloudy
1:54 PM 66.0 °F 46.9 °F 50% 30.03 in 10.0 mi WSW 12.7 mph - N/A   Clear
2:54 PM 66.9 °F 46.0 °F 47% 30.01 in 10.0 mi West 17.3 mph 26.5 mph N/A   Clear
3:54 PM 69.8 °F 44.6 °F 40% 30.01 in 10.0 mi West 19.6 mph 25.3 mph N/A   Clear
4:54 PM 68.0 °F 45.0 °F 43% 30.01 in 10.0 mi West 17.3 mph 24.2 mph N/A   Clear
5:54 PM 66.9 °F 45.0 °F 45% 30.02 in 10.0 mi West 18.4 mph 24.2 mph N/A   Partly Cloudy
6:54 PM 64.9 °F 45.0 °F 48% 30.04 in 10.0 mi West 11.5 mph - N/A   Clear
7:54 PM 59.0 °F 45.0 °F 60% 30.06 in 10.0 mi West 5.8 mph - N/A   Clear
8:54 PM 55.9 °F 45.0 °F 67% 30.08 in 10.0 mi West 5.8 mph - N/A   Clear
9:54 PM 57.0 °F 45.0 °F 64% 30.09 in 10.0 mi West 9.2 mph - N/A   Clear
10:54 PM 53.1 °F 41.0 °F 64% 30.11 in 10.0 mi WNW 3.5 mph - N/A   Clear
11:54 PM 53.1 °F 37.9 °F 57% 30.12 in 10.0 mi WNW 5.8 mph - N/A   Clear